Home > Time Zones > World Clock > Weather > China > Sian > Past weeks

Flag for China Weather past 2 weeks in Sian, Shaanxi, China

Now
95 °F

Haze.


Feels Like: 101 °F
Forecast: 75 / 101 °F
Wind: 8 mph from East

Location: Xian/Xianyang

Current Time: Aug 2, 2014 at 3:12:14 PM

Latest Report: Aug 2, 2014 at 2:00 PM


Visibility: 3 mi

Pressure: 29.62 "Hg

Humidity: 44%

Dew point: 70 °F

Location of SianLocation

Historic Weather in Sian — Graph

°F

Sian temperature yesterday

Maximum temperature yesterday: 97 °F (at 3:00 PM)
Minimum temperature yesterday: 79 °F (at 4:00 AM)
Average temperature yesterday: 86 °F

Past Weeks' High & Low Weather Summary

 TemperatureHumidityPressure
High106 °F (Jul 22, 4:00 PM)94% (Jul 22, 11:00 PM)29.89 "Hg (Jul 22, 11:00 PM)
Low66 °F (Jul 25, 6:00 AM)29% (Jul 22, 5:00 PM)29.47 "Hg (Jul 29, 5:00 PM)
Average86 °F55%29.69 "Hg
* Reported Jul 18 2:00 PM — Aug 2 2:00 PM, Sian, Weather by CustomWeather, © 2014

Note: Actual official high and low records may vary slightly from our data, if they occured in-between our weather recording intervals... More about our weather records

Advertising

Sian weather history for previous 24 hours

 ConditionsComfort  
Time TempWeatherWind HumidityBarometerVisibility
2:00 PM
Aug 2
95 °FHaze.8 mph44%29.62 "Hg3 mi
1:00 PM93 °FHaze.6 mph47%29.65 "Hg3 mi
12:00 PM90 °FHaze.8 mph49%29.68 "Hg3 mi
11:00 AM88 °FHaze.8 mph52%29.71 "Hg3 mi
10:00 AM86 °FHaze.10 mph52%29.71 "Hg3 mi
9:00 AM82 °FHaze.13 mph58%29.71 "Hg3 mi
8:00 AM81 °FHaze.8 mph62%29.71 "Hg3 mi
7:00 AM79 °FHaze.10 mph61%29.71 "Hg3 mi
6:00 AM77 °FHaze.8 mph65%29.71 "Hg3 mi
5:00 AM77 °FClear.10 mph61%29.71 "Hg4 mi
4:00 AM79 °FClear.10 mph58%29.68 "Hg4 mi
3:00 AM81 °FClear.10 mph54%29.68 "Hg4 mi
2:00 AM81 °FClear.8 mph58%29.68 "Hg4 mi
1:00 AM81 °FClear.6 mph58%29.68 "Hg4 mi
12:00 AM81 °FClear.6 mph62%29.68 "Hg4 mi
11:00 PM
Aug 1
81 °FClear.6 mph62%29.68 "Hg4 mi
10:00 PM82 °FClear.6 mph55%29.68 "Hg4 mi
9:00 PM84 °FClear.6 mph51%29.65 "Hg4 mi
8:00 PM84 °FClear.6 mph51%29.65 "Hg4 mi
7:00 PM91 °FClear.8 mph44%29.62 "Hg4 mi
6:00 PM95 °FSunny.10 mph39%29.62 "Hg10 mi
5:00 PM97 °FSunny.10 mph32%29.62 "Hg10 mi
4:00 PM95 °FClear.13 mph32%29.62 "Hg4 mi
3:00 PM97 °FHaze.8 mph42%29.65 "Hg3 mi
Weather by CustomWeather, © 2014

See weather overviewHow to use our weather pages